Location: Caltech
(34.1382°N, 118.1253°W)
Time: 17:33:00
(UTC-07:00)

ARGOS - Visible Passes

Search period start: 30 August 2015 00:00
Search period end: 09 September 2015 00:00
Orbit: 821 x 834 km, 98.7° (Epoch: 29 August)

Date Brightness Start Highest point End Pass type
(mag) Time Alt. Az. Time Alt. Az. Time Alt. Az.
30 Aug 4.5 22:24:50 33° N 22:24:50 33° N 22:27:45 10° N visible
31 Aug 4.5 22:06:13 30° NNE 22:06:13 30° NNE 22:09:07 10° N visible
31 Aug 6.0 23:47:44 10° NW 23:47:44 10° NW 23:47:46 10° NW visible
01 Sep 4.7 21:47:35 25° NNE 21:47:35 25° NNE 21:50:19 10° N visible
01 Sep 5.8 23:29:07 15° NW 23:29:07 15° NW 23:30:10 10° NW visible
02 Sep 4.9 21:28:58 19° NE 21:28:58 19° NE 21:31:18 10° NNE visible
02 Sep 5.5 23:10:30 19° NW 23:10:30 19° NW 23:12:10 10° NNW visible
03 Sep 5.1 21:10:20 14° NE 21:10:20 14° NE 21:11:56 10° NNE visible
03 Sep 5.2 22:51:52 23° NNW 22:51:52 23° NNW 22:53:55 10° NNW visible
04 Sep 5.0 22:33:15 26° NNW 22:33:15 26° NNW 22:35:30 10° NNW visible
05 Sep 4.9 22:14:38 26° N 22:14:38 26° N 22:16:56 10° N visible
06 Sep 4.9 21:56:01 23° NNE 21:56:01 23° NNE 21:58:12 10° N visible
06 Sep 6.1 23:37:33 10° NW 23:37:33 10° NW 23:37:36 10° NW visible
07 Sep 5.0 21:37:24 19° NNE 21:37:24 19° NNE 21:39:18 10° NNE visible
07 Sep 5.9 23:18:55 14° NW 23:18:55 14° NW 23:19:44 10° NW visible
08 Sep 5.2 21:18:47 14° NE 21:18:47 14° NE 21:20:06 10° NNE visible
08 Sep 5.6 23:00:18 17° NNW 23:00:18 17° NNW 23:01:35 10° NNW visible
